This is the latest recevied weather packets stored in our database for station/object HP3ICC-23. If no packets are shown the sender has not sent any weather packets the latest 10 day(s).
| Time | Temp. | Humidity | Pressure | Rain* | Wind** | Luminosity | Snow |
|---|---|---|---|---|---|---|---|
| 1777711244 | 14.44° C | 91% | 1011 hPa | 0 mm | - | - | - |
| 1777710104 | 13.89° C | 88% | 1010 hPa | 0 mm | - | - | - |
| 1777710044 | 13.89° C | 88% | 1010 hPa | 0 mm | - | - | - |
| 1777708904 | 14.44° C | 88% | 1011 hPa | 0 mm | - | - | - |
| 1777708844 | 14.44° C | 88% | 1011 hPa | 0 mm | - | - | - |
| 1777707703 | 15° C | 92% | 1011 hPa | 0 mm | - | - | - |
| 1777707643 | 15° C | 92% | 1011 hPa | 0 mm | - | - | - |
| 1777706503 | 14.44° C | 93% | 1011 hPa | 0 mm | - | - | - |
| 1777706443 | 14.44° C | 93% | 1011 hPa | 0 mm | - | - | - |
| 1777705302 | 15° C | 93% | 1012 hPa | 0 mm | - | - | - |
| 1777705242 | 15° C | 93% | 1012 hPa | 0 mm | - | - | - |
| 1777704102 | 14.44° C | 93% | 1012 hPa | 0 mm | - | - | - |
| 1777704042 | 14.44° C | 93% | 1012 hPa | 0 mm | - | - | - |
| 1777702902 | 15° C | 93% | 1012 hPa | 0 mm | - | - | - |
| 1777702841 | 15° C | 93% | 1012 hPa | 0 mm | - | - | - |
| 1777701701 | 13.89° C | 93% | 1012 hPa | 0 mm | - | - | - |
| 1777701641 | 13.89° C | 93% | 1012 hPa | 0 mm | - | - | - |
| 1777700440 | 14.44° C | 93% | 1012 hPa | 0 mm | - | - | - |
| 1777699300 | 15° C | 93% | 1012 hPa | 0 mm | - | - | - |
| 1777699240 | 15° C | 93% | 1012 hPa | 0 mm | - | - | - |
| 1777698100 | 14.44° C | 95% | 1013 hPa | 0 mm | - | - | - |
| 1777698039 | 14.44° C | 95% | 1013 hPa | 0 mm | - | - | - |
| 1777696899 | 15° C | 95% | 1013 hPa | 0 mm | - | - | - |
| 1777696839 | 15° C | 95% | 1013 hPa | 0 mm | - | - | - |
| 1777695699 | 14.44° C | 89% | 1012 hPa | 0 mm | - | - | - |
* Rain latest hour (hover to see other rain measurements)
** Current wind speed in m/s (hover to see current wind gust speed)